This demonstration page uses our WeatherBlox Daily Observations layout. Learn more.

Hourly Observations for February 18, 2017

Temp ( °F °C ) Dew Point ( °F °C ) Humidity (%) Winds ( mph kmh ) Pressure ( in mb ) Visibility ( mi km ) Precip ( " mm )
12:15 am 00:15 Clear 32 0 28 -2 87 87 undefined N/A 29.94 1014 10 16.09344 0 0
12:35 am 00:35 Clear 32 0 28 -2 87 87 undefined N/A 29.94 1014 10 16.09344 0 0
12:55 am 00:55 Clear 32 0 28 -2 87 87 undefined N/A 29.94 1014 10 16.09344 0 0
1:15 am 01:15 Clear 32 0 28 -2 87 87 undefined N/A 29.94 1014 10 16.09344 0 0
1:35 am 01:35 Clear 34 1 28 -2 81 81 undefined N/A 29.94 1014 10 16.09344 0 0
1:55 am 01:55 Clear 30 -1 28 -2 93 93 undefined N/A 29.94 1014 10 16.09344 0 0
2:15 am 02:15 Clear 32 0 28 -2 87 87 undefined N/A 29.94 1014 10 16.09344 0 0
2:35 am 02:35 Clear 32 0 27 -3 80 80 undefined N/A 29.94 1014 10 16.09344 0 0
2:55 am 02:55 Clear 30 -1 28 -2 93 93 undefined N/A 29.91 1013 10 16.09344 0 0
3:15 am 03:15 Clear 32 0 28 -2 87 87 undefined N/A 29.91 1013 10 16.09344 0 0
3:35 am 03:35 Clear 30 -1 28 -2 93 93 undefined N/A 29.91 1013 10 16.09344 0 0
3:55 am 03:55 Clear 32 0 28 -2 87 87 undefined N/A 29.91 1013 10 16.09344 0 0
4:15 am 04:15 Clear 32 0 28 -2 87 87 undefined N/A 29.91 1013 10 16.09344 0 0
4:35 am 04:35 Clear 30 -1 27 -3 86 86 undefined N/A 29.91 1013 10 16.09344 0 0
4:55 am 04:55 Clear 30 -1 27 -3 86 86 undefined N/A 29.91 1013 10 16.09344 0 0
5:15 am 05:15 Clear 30 -1 28 -2 93 93 undefined N/A 29.91 1013 10 16.09344 0 0
5:35 am 05:35 Clear 30 -1 27 -3 86 86 undefined N/A 29.91 1013 10 16.09344 0 0
5:55 am 05:55 Clear 30 -1 27 -3 86 86 undefined N/A 29.94 1014 10 16.09344 0 0
6:15 am 06:15 Clear 32 0 28 -2 87 87 undefined N/A 29.91 1013 10 16.09344 0 0
6:35 am 06:35 Clear 32 0 28 -2 87 87 undefined N/A 29.91 1013 10 16.09344 0 0
6:55 am 06:55 Clear 32 0 28 -2 87 87 undefined N/A 29.94 1014 10 16.09344 0 0
7:15 am 07:15 Sunny 32 0 28 -2 87 87 undefined N/A 29.94 1014 10 16.09344 0 0
7:35 am 07:35 Sunny 34 1 28 -2 81 81 undefined N/A 29.94 1014 10 16.09344 0 0
7:55 am 07:55 Sunny 36 2 28 -2 75 75 undefined N/A 29.94 1014 10 16.09344 0 0
8:15 am 08:15 Sunny 37 3 30 -1 75 75 undefined N/A 29.94 1014 10 16.09344 0 0
8:35 am 08:35 Sunny 39 4 30 -1 70 70 undefined N/A 29.94 1014 10 16.09344 0 0
8:55 am 08:55 Sunny 43 6 32 0 66 66 undefined N/A 29.94 1014 10 16.09344 0 0
9:15 am 09:15 Sunny 46 8 32 0 57 57 undefined N/A 29.91 1013 10 16.09344 0 0
9:35 am 09:35 Sunny 50 10 32 0 50 50 undefined N/A 29.88 1012 10 16.09344 0 0
9:55 am 09:55 Sunny 52 11 32 0 47 47 undefined N/A 29.88 1012 10 16.09344 0 0
10:15 am 10:15 Sunny 54 12 34 1 47 47 SSW 5 7 29.88 1012 10 16.09344 0 0
10:35 am 10:35 Sunny 57 14 34 1 41 41 SSW 5 7 29.88 1012 10 16.09344 0 0
10:55 am 10:55 Sunny 61 16 36 2 39 39 S 5 7 29.88 1012 10 16.09344 0 0
11:15 am 11:15 Sunny 61 16 36 2 39 39 S 6 9 29.85 1011 10 16.09344 0 0
11:35 am 11:35 Sunny 63 17 36 2 37 37 S 5 7 29.85 1011 10 16.09344 0 0
11:55 am 11:55 Sunny 66 19 37 3 35 35 S 3 6 29.83 1010 10 16.09344 0 0
12:15 pm 12:15 Sunny 68 20 37 3 33 33 S 7 11 29.83 1010 10 16.09344 0 0
12:35 pm 12:35 Sunny 70 21 37 3 31 31 S 7 11 29.8 1009 10 16.09344 0 0
12:55 pm 12:55 Sunny 70 21 36 2 29 29 SSE 8 13 29.8 1009 10 16.09344 0 0
1:15 pm 13:15 Sunny 70 21 37 3 31 31 S 7 11 29.8 1009 10 16.09344 0 0
1:35 pm 13:35 Sunny 72 22 36 2 27 27 S 10 17 29.77 1008 10 16.09344 0 0
1:55 pm 13:55 Sunny 73 23 36 2 25 25 SW 8 13 29.77 1008 10 16.09344 0 0
2:15 pm 14:15 Sunny 73 23 34 1 23 23 SW 9 15 29.74 1007 10 16.09344 0 0
2:35 pm 14:35 Sunny 73 23 34 1 23 23 SSW 10 17 29.74 1007 10 16.09344 0 0
2:55 pm 14:55 Sunny 73 23 32 0 22 22 WSW 12 19 29.74 1007 10 16.09344 0 0
3:15 pm 15:15 Sunny 73 23 34 1 23 23 SSW 10 17 29.74 1007 10 16.09344 0 0
3:35 pm 15:35 Sunny 73 23 34 1 23 23 SW 9 15 29.74 1007 10 16.09344 0 0
3:55 pm 15:55 Sunny 73 23 34 1 23 23 SW 10 17 29.74 1007 10 16.09344 0 0
4:15 pm 16:15 Sunny 73 23 34 1 23 23 SSW 10 17 29.74 1007 10 16.09344 0 0
4:35 pm 16:35 Sunny 72 22 36 2 27 27 SSW 10 17 29.74 1007 10 16.09344 0 0
4:55 pm 16:55 Sunny 72 22 36 2 27 27 SW 9 15 29.74 1007 10 16.09344 0 0
5:15 pm 17:15 Sunny 70 21 34 1 27 27 SW 8 13 29.74 1007 10 16.09344 0 0
5:35 pm 17:35 Sunny 70 21 34 1 27 27 WSW 10 17 29.77 1008 10 16.09344 0 0
5:55 pm 17:55 Clear 68 20 34 1 28 28 SW 7 11 29.77 1008 10 16.09344 0 0
6:15 pm 18:15 Clear 66 19 34 1 30 30 WSW 6 9 29.77 1008 10 16.09344 0 0
6:35 pm 18:35 Clear 63 17 34 1 34 34 N 5 7 29.77 1008 10 16.09344 0 0
6:55 pm 18:55 Clear 61 16 34 1 36 36 NW 5 7 29.8 1009 10 16.09344 0 0
7:15 pm 19:15 Clear 59 15 34 1 39 39 WNW 5 7 29.77 1008 10 16.09344 0 0
7:35 pm 19:35 Clear 59 15 34 1 39 39 Calm 29.77 1008 10 16.09344 0 0
7:55 pm 19:55 Clear 59 15 34 1 39 39 Calm 29.77 1008 10 16.09344 0 0
8:15 pm 20:15 Clear 54 12 34 1 47 47 W 5 7 29.77 1008 10 16.09344 0 0
8:35 pm 20:35 Clear 55 13 34 1 44 44 WSW 3 6 29.77 1008 10 16.09344 0 0
8:55 pm 20:55 Partly Cloudy 55 13 36 2 47 47 W 3 6 29.77 1008 10 16.09344 0 0
9:15 pm 21:15 Clear 52 11 36 2 54 54 W 5 7 29.8 1009 10 16.09344 0 0
9:35 pm 21:35 Clear 52 11 37 3 58 58 W 5 7 29.8 1009 10 16.09344 0 0
9:55 pm 21:55 Clear 55 13 36 2 47 47 W 7 11 29.8 1009 10 16.09344 0 0
10:15 pm 22:15 Clear 55 13 36 2 47 47 W 5 7 29.8 1009 10 16.09344 0 0
10:35 pm 22:35 Mostly Cloudy 57 14 34 1 41 41 WSW 5 7 29.8 1009 10 16.09344 0 0
10:55 pm 22:55 Cloudy 59 15 34 1 39 39 Calm 29.8 1009 10 16.09344 0 0
11:15 pm 23:15 Partly Cloudy 59 15 34 1 39 39 Calm 29.8 1009 10 16.09344 0 0
11:35 pm 23:35 Clear 55 13 36 2 47 47 Calm 29.8 1009 10 16.09344 0 0
11:55 pm 23:55 Clear 55 13 36 2 47 47 Calm 29.8 1009 10 16.09344 0 0

Powered by AerisWeather